| time (UTC) | temp F | wind direction | speed knots | gust knots | rain 1hr in | rain 24hr in | rain mn in | humidity % | barometer mb |
| 20260504081607 | 40 | 0 | 0.0 | 0.0 | 0.00 | 0.00 | 0.00 | 81 | 1014.4 |
| 20260504081050 | 40 | 0 | 0.0 | 0.0 | 0.00 | 0.00 | 0.00 | 81 | 1014.4 |
| 20260504080551 | 39 | 0 | 0.0 | 0.0 | 0.00 | 0.00 | 0.00 | 81 | 1014.4 |
| 20260504060115 | 45 | 0 | 0.0 | 0.0 | 0.00 | 0.00 | 0.00 | 68 | 1014.5 |
| 20260504050550 | 44 | 184 | 0.0 | 0.9 | 0.00 | 0.00 | 0.00 | 70 | 1014.7 |
| 20260504050117 | 45 | 0 | 0.0 | 0.0 | 0.00 | 0.00 | 0.00 | 70 | 1014.8 |
| 20260504045549 | 45 | 0 | 0.0 | 0.0 | 0.00 | 0.00 | 0.00 | 69 | 1014.8 |
| 20260504045048 | 45 | 0 | 0.0 | 0.0 | 0.00 | 0.00 | 0.00 | 68 | 1014.7 |
| 20260504044553 | 45 | 0 | 0.0 | 0.0 | 0.00 | 0.00 | 0.00 | 69 | 1014.7 |
| 20260504044054 | 45 | 0 | 0.0 | 0.0 | 0.00 | 0.00 | 0.00 | 69 | 1014.6 |
| 20260504043551 | 46 | 0 | 0.0 | 0.0 | 0.00 | 0.00 | 0.00 | 67 | 1014.6 |
| 20260504043106 | 46 | 0 | 0.0 | 0.0 | 0.00 | 0.00 | 0.00 | 68 | 1014.5 |
| 20260504042550 | 46 | 0 | 0.0 | 0.0 | 0.00 | 0.00 | 0.00 | 67 | 1014.6 |
| 20260504042051 | 45 | 0 | 0.0 | 0.0 | 0.00 | 0.00 | 0.00 | 68 | 1014.5 |
| 20260504041550 | 45 | 0 | 0.0 | 0.0 | 0.00 | 0.00 | 0.00 | 68 | 1014.4 |
| 20260504041050 | 45 | 0 | 0.0 | 0.0 | 0.00 | 0.00 | 0.00 | 67 | 1014.3 |
| 20260504040550 | 46 | 0 | 0.0 | 0.0 | 0.00 | 0.00 | 0.00 | 67 | 1014.3 |
| 20260504040108 | 46 | 0 | 0.0 | 0.9 | 0.00 | 0.00 | 0.00 | 67 | 1014.4 |
| 20260504035551 | 46 | 0 | 0.0 | 0.9 | 0.00 | 0.00 | 0.00 | 67 | 1014.3 |
| 20260504035051 | 46 | 0 | 0.0 | 0.9 | 0.00 | 0.00 | 0.00 | 66 | 1014.3 |
| 20260504034551 | 47 | 0 | 0.0 | 0.9 | 0.00 | 0.00 | 0.00 | 66 | 1014.3 |
| 20260504034048 | 47 | 0 | 0.0 | 0.9 | 0.00 | 0.00 | 0.00 | 65 | 1014.3 |
| 20260504033548 | 47 | 0 | 0.0 | 0.9 | 0.00 | 0.00 | 0.00 | 65 | 1014.3 |
| 20260504033057 | 47 | 0 | 0.0 | 0.9 | 0.00 | 0.00 | 0.00 | 65 | 1014.3 |
| 20260504032551 | 46 | 0 | 0.0 | 0.9 | 0.00 | 0.00 | 0.00 | 66 | 1014.2 |
| 20260504032052 | 46 | 0 | 0.0 | 0.9 | 0.00 | 0.00 | 0.00 | 67 | 1014.3 |
| 20260504031604 | 46 | 0 | 0.0 | 0.9 | 0.00 | 0.00 | 0.00 | 66 | 1014.2 |
| 20260504031050 | 46 | 0 | 0.0 | 0.9 | 0.00 | 0.00 | 0.00 | 65 | 1014.1 |
| 20260504030551 | 47 | 0 | 0.0 | 0.9 | 0.00 | 0.00 | 0.00 | 65 | 1014.2 |
| 20260504030056 | 46 | 0 | 0.0 | 0.9 | 0.00 | 0.00 | 0.00 | 65 | 1014.1 |
| 20260504025551 | 46 | 0 | 0.0 | 0.9 | 0.00 | 0.00 | 0.00 | 65 | 1014.1 |
| 20260504025050 | 46 | 0 | 0.0 | 0.9 | 0.00 | 0.00 | 0.00 | 65 | 1014.1 |
| 20260504024553 | 47 | 0 | 0.0 | 0.9 | 0.00 | 0.00 | 0.00 | 66 | 1014.0 |
| 20260504024048 | 47 | 0 | 0.0 | 0.9 | 0.00 | 0.00 | 0.00 | 64 | 1014.0 |
| 20260504023548 | 47 | 0 | 0.0 | 0.0 | 0.00 | 0.00 | 0.00 | 64 | 1014.0 |
| 20260504023054 | 48 | 0 | 0.0 | 0.0 | 0.00 | 0.00 | 0.00 | 63 | 1014.0 |
| 20260504022551 | 48 | 0 | 0.0 | 0.9 | 0.00 | 0.00 | 0.00 | 62 | 1014.1 |
| 20260504022050 | 48 | 0 | 0.0 | 0.9 | 0.00 | 0.00 | 0.00 | 62 | 1014.1 |
| 20260504021555 | 48 | 0 | 0.0 | 0.9 | 0.00 | 0.00 | 0.00 | 62 | 1014.2 |
| 20260504021050 | 48 | 0 | 0.0 | 0.9 | 0.00 | 0.00 | 0.00 | 62 | 1014.2 |
| 20260504020550 | 48 | 0 | 0.0 | 0.9 | 0.00 | 0.00 | 0.00 | 62 | 1014.2 |
| 20260504020057 | 48 | 0 | 0.0 | 0.9 | 0.00 | 0.00 | 0.00 | 62 | 1014.0 |
| 20260504015551 | 48 | 0 | 0.0 | 0.9 | 0.00 | 0.00 | 0.00 | 61 | 1014.1 |
| 20260504015051 | 48 | 0 | 0.0 | 0.0 | 0.00 | 0.00 | 0.00 | 62 | 1014.1 |
| 20260504014601 | 49 | 0 | 0.0 | 0.0 | 0.00 | 0.00 | 0.00 | 60 | 1014.0 |
| 20260504014050 | 49 | 0 | 0.0 | 0.0 | 0.00 | 0.00 | 0.00 | 61 | 1014.0 |
| 20260504013551 | 49 | 0 | 0.0 | 0.0 | 0.00 | 0.00 | 0.00 | 60 | 1013.9 |
| 20260504013112 | 49 | 0 | 0.0 | 0.0 | 0.00 | 0.00 | 0.00 | 59 | 1013.9 |
| 20260504012552 | 50 | 0 | 0.0 | 0.0 | 0.00 | 0.00 | 0.00 | 60 | 1013.8 |
| 20260504012050 | 50 | 0 | 0.0 | 0.0 | 0.00 | 0.00 | 0.00 | 57 | 1013.8 |
| 20260504011554 | 50 | 0 | 0.0 | 0.9 | 0.00 | 0.00 | 0.00 | 57 | 1013.8 |
| 20260504011051 | 51 | 0 | 0.0 | 0.9 | 0.00 | 0.00 | 0.00 | 56 | 1013.7 |
| 20260504010551 | 51 | 0 | 0.0 | 0.9 | 0.00 | 0.00 | 0.00 | 56 | 1013.7 |
| 20260504010111 | 51 | 0 | 0.0 | 0.0 | 0.00 | 0.00 | 0.00 | 56 | 1013.7 |
| 20260504005549 | 52 | 0 | 0.0 | 0.0 | 0.00 | 0.00 | 0.00 | 53 | 1013.7 |
| 20260504005051 | 53 | 0 | 0.0 | 0.0 | 0.00 | 0.00 | 0.00 | 52 | 1013.6 |
| 20260504004550 | 53 | 0 | 0.0 | 0.0 | 0.00 | 0.00 | 0.00 | 50 | 1013.6 |
| 20260504004053 | 54 | 0 | 0.0 | 0.0 | 0.00 | 0.00 | 0.00 | 49 | 1013.5 |
| 20260504003550 | 55 | 0 | 0.0 | 0.9 | 0.00 | 0.00 | 0.00 | 49 | 1013.5 |
| 20260504003053 | 55 | 0 | 0.0 | 0.9 | 0.00 | 0.00 | 0.00 | 47 | 1013.5 |
| 20260504002550 | 55 | 0 | 0.0 | 0.9 | 0.00 | 0.00 | 0.00 | 46 | 1013.4 |
| 20260504002050 | 56 | 284 | 0.0 | 0.9 | 0.00 | 0.00 | 0.00 | 46 | 1013.4 |
| 20260504001559 | 56 | 0 | 0.0 | 0.9 | 0.00 | 0.00 | 0.00 | 45 | 1013.2 |
| 20260504001048 | 56 | 279 | 0.0 | 1.7 | 0.00 | 0.00 | 0.00 | 44 | 1013.2 |
| 20260504000550 | 57 | 0 | 0.0 | 1.7 | 0.00 | 0.00 | 0.00 | 45 | 1013.1 |
| 20260504000055 | 57 | 0 | 0.0 | 1.7 | 0.00 | 0.00 | 0.00 | 44 | 1013.1 |
| 20260503235551 | 57 | 284 | 0.0 | 1.7 | 0.00 | 0.00 | 0.00 | 43 | 1013.1 |
| 20260503235048 | 58 | 0 | 0.0 | 5.2 | 0.00 | 0.00 | 0.00 | 44 | 1012.8 |
| 20260503234555 | 58 | 0 | 0.0 | 5.2 | 0.00 | 0.00 | 0.00 | 43 | 1012.9 |
| 20260503234053 | 58 | 0 | 0.0 | 6.1 | 0.00 | 0.00 | 0.00 | 42 | 1012.9 |
| 20260503233551 | 58 | 0 | 0.0 | 6.1 | 0.00 | 0.00 | 0.00 | 41 | 1012.8 |
| 20260503233100 | 59 | 0 | 0.0 | 10.4 | 0.00 | 0.00 | 0.00 | 42 | 1012.8 |
| 20260503232550 | 59 | 0 | 0.0 | 10.4 | 0.00 | 0.00 | 0.00 | 41 | 1012.7 |
| 20260503232050 | 59 | 309 | 0.9 | 7.0 | 0.00 | 0.00 | 0.00 | 40 | 1012.8 |
| 20260503231555 | 59 | 284 | 0.0 | 7.0 | 0.00 | 0.00 | 0.00 | 41 | 1012.7 |
| 20260503231050 | 59 | 0 | 0.0 | 7.0 | 0.00 | 0.00 | 0.00 | 42 | 1012.8 |
| 20260503230550 | 59 | 265 | 0.0 | 10.4 | 0.00 | 0.00 | 0.00 | 42 | 1012.8 |
| 20260503230058 | 59 | 251 | 0.9 | 10.4 | 0.00 | 0.00 | 0.00 | 41 | 1012.8 |
| 20260503225552 | 59 | 0 | 0.0 | 7.0 | 0.00 | 0.00 | 0.00 | 40 | 1012.8 |
| 20260503225047 | 59 | 223 | 0.9 | 7.0 | 0.00 | 0.00 | 0.00 | 40 | 1012.8 |
| 20260503224555 | 59 | 0 | 0.9 | 3.5 | 0.00 | 0.00 | 0.00 | 40 | 1012.7 |
| 20260503224051 | 59 | 0 | 0.0 | 7.0 | 0.00 | 0.00 | 0.00 | 39 | 1012.8 |
| 20260503223551 | 60 | 296 | 0.0 | 7.0 | 0.00 | 0.00 | 0.00 | 39 | 1012.8 |
| 20260503223058 | 60 | 5 | 0.0 | 12.2 | 0.00 | 0.00 | 0.00 | 40 | 1012.8 |
| 20260503222548 | 60 | 0 | 0.0 | 12.2 | 0.00 | 0.00 | 0.00 | 39 | 1012.8 |
| 20260503222050 | 60 | 0 | 1.7 | 12.2 | 0.00 | 0.00 | 0.00 | 38 | 1012.8 |
| 20260503221559 | 60 | 298 | 0.0 | 7.0 | 0.00 | 0.00 | 0.00 | 41 | 1012.7 |
| 20260503221052 | 60 | 0 | 0.0 | 10.4 | 0.00 | 0.00 | 0.00 | 40 | 1012.7 |
| 20260503220552 | 60 | 301 | 0.0 | 10.4 | 0.00 | 0.00 | 0.00 | 40 | 1012.7 |
| 20260503215552 | 60 | 333 | 0.9 | 8.7 | 0.00 | 0.00 | 0.00 | 38 | 1012.7 |
| 20260503215051 | 60 | 256 | 1.7 | 8.7 | 0.00 | 0.00 | 0.00 | 39 | 1012.7 |
| 20260503214558 | 61 | 267 | 0.0 | 8.7 | 0.00 | 0.00 | 0.00 | 38 | 1012.7 |
| 20260503214054 | 60 | 0 | 0.9 | 8.7 | 0.00 | 0.00 | 0.00 | 40 | 1012.7 |
| 20260503213554 | 60 | 302 | 0.0 | 8.7 | 0.00 | 0.00 | 0.00 | 39 | 1012.7 |
| 20260503213055 | 60 | 269 | 0.9 | 8.7 | 0.00 | 0.00 | 0.00 | 39 | 1012.8 |
| 20260503212553 | 60 | 0 | 0.9 | 10.4 | 0.00 | 0.00 | 0.00 | 38 | 1012.7 |
| 20260503212053 | 60 | 282 | 0.0 | 10.4 | 0.00 | 0.00 | 0.00 | 40 | 1012.6 |
| 20260503211551 | 60 | 241 | 0.0 | 6.1 | 0.00 | 0.00 | 0.00 | 41 | 1012.7 |
| 20260503211052 | 60 | 282 | 0.0 | 13.0 | 0.00 | 0.00 | 0.00 | 38 | 1012.6 |
| 20260503210552 | 60 | 0 | 0.9 | 13.0 | 0.00 | 0.00 | 0.00 | 40 | 1012.7 |
| 20260503210058 | 60 | 289 | 1.7 | 12.2 | 0.00 | 0.00 | 0.00 | 39 | 1012.7 |
| 20260503205554 | 60 | 0 | 0.9 | 10.4 | 0.00 | 0.00 | 0.00 | 39 | 1012.7 |
| 20260503205052 | 60 | 281 | 2.6 | 10.4 | 0.00 | 0.00 | 0.00 | 39 | 1012.6 |
| 20260503204609 | 59 | 296 | 0.0 | 7.8 | 0.00 | 0.00 | 0.00 | 40 | 1012.7 |
| 20260503204051 | 59 | 0 | 0.0 | 10.4 | 0.00 | 0.00 | 0.00 | 38 | 1012.8 |
| 20260503203552 | 60 | 246 | 2.6 | 10.4 | 0.00 | 0.00 | 0.00 | 39 | 1012.8 |
| 20260503203101 | 60 | 267 | 0.9 | 8.7 | 0.00 | 0.00 | 0.00 | 38 | 1012.8 |
| 20260503202553 | 60 | 0 | 0.0 | 5.2 | 0.00 | 0.00 | 0.00 | 41 | 1012.9 |
| 20260503202053 | 59 | 0 | 0.9 | 10.4 | 0.00 | 0.00 | 0.00 | 40 | 1012.9 |
| 20260503201558 | 58 | 311 | 0.9 | 10.4 | 0.00 | 0.00 | 0.00 | 39 | 1012.9 |
| 20260503201052 | 59 | 275 | 0.9 | 10.4 | 0.00 | 0.00 | 0.00 | 38 | 1012.9 |
| 20260503200552 | 58 | 254 | 0.0 | 12.2 | 0.00 | 0.00 | 0.00 | 39 | 1013.1 |
| 20260503200053 | 59 | 285 | 2.6 | 12.2 | 0.00 | 0.00 | 0.00 | 38 | 1013.1 |
| 20260503195552 | 58 | 0 | 1.7 | 12.2 | 0.00 | 0.00 | 0.00 | 38 | 1013.1 |
| 20260503195052 | 58 | 0 | 0.0 | 5.2 | 0.00 | 0.00 | 0.00 | 39 | 1013.1 |
| 20260503194614 | 58 | 42 | 0.9 | 12.2 | 0.00 | 0.00 | 0.00 | 39 | 1013.2 |
| 20260503194052 | 58 | 274 | 0.9 | 12.2 | 0.00 | 0.00 | 0.00 | 39 | 1013.3 |
| 20260503193552 | 58 | 0 | 0.0 | 6.1 | 0.00 | 0.00 | 0.00 | 37 | 1013.3 |
| 20260503193100 | 59 | 286 | 0.0 | 12.2 | 0.00 | 0.00 | 0.00 | 39 | 1013.4 |
| 20260503192551 | 58 | 0 | 1.7 | 12.2 | 0.00 | 0.00 | 0.00 | 39 | 1013.5 |
| 20260503192052 | 58 | 311 | 1.7 | 13.9 | 0.00 | 0.00 | 0.00 | 40 | 1013.4 |
| 20260503191602 | 58 | 306 | 0.9 | 13.9 | 0.00 | 0.00 | 0.00 | 40 | 1013.5 |
| 20260503191052 | 58 | 306 | 1.7 | 14.8 | 0.00 | 0.00 | 0.00 | 40 | 1013.6 |
| 20260503190552 | 58 | 331 | 2.6 | 14.8 | 0.00 | 0.00 | 0.00 | 40 | 1013.6 |
| 20260503190101 | 58 | 291 | 0.9 | 7.8 | 0.00 | 0.00 | 0.00 | 41 | 1013.8 |
| 20260503185551 | 57 | 298 | 0.9 | 7.8 | 0.00 | 0.00 | 0.00 | 40 | 1013.8 |
| 20260503185051 | 57 | 333 | 0.0 | 7.8 | 0.00 | 0.00 | 0.00 | 42 | 1013.7 |
| 20260503184600 | 57 | 316 | 0.9 | 7.8 | 0.00 | 0.00 | 0.00 | 42 | 1013.8 |
| 20260503184052 | 57 | 290 | 0.9 | 13.9 | 0.00 | 0.00 | 0.00 | 41 | 1013.8 |
| 20260503183552 | 57 | 307 | 2.6 | 13.9 | 0.00 | 0.00 | 0.00 | 43 | 1014.0 |
| 20260503183104 | 56 | 269 | 1.7 | 8.7 | 0.00 | 0.00 | 0.00 | 42 | 1014.0 |
| 20260503182551 | 56 | 0 | 0.9 | 12.2 | 0.00 | 0.00 | 0.00 | 45 | 1014.1 |
| 20260503182052 | 56 | 293 | 1.7 | 13.9 | 0.00 | 0.00 | 0.00 | 43 | 1014.0 |
| 20260503181555 | 56 | 315 | 3.5 | 13.9 | 0.00 | 0.00 | 0.00 | 42 | 1014.2 |
| 20260503181052 | 56 | 360 | 3.5 | 13.9 | 0.00 | 0.00 | 0.00 | 43 | 1014.1 |
| 20260503180553 | 56 | 329 | 1.7 | 14.8 | 0.00 | 0.00 | 0.00 | 43 | 1014.2 |
| 20260503180107 | 55 | 0 | 0.0 | 14.8 | 0.00 | 0.00 | 0.00 | 46 | 1014.2 |
| 20260503175552 | 55 | 307 | 1.7 | 14.8 | 0.00 | 0.00 | 0.00 | 45 | 1014.2 |
| 20260503175052 | 54 | 301 | 0.0 | 6.1 | 0.00 | 0.00 | 0.00 | 45 | 1014.4 |
| 20260503174052 | 54 | 0 | 0.0 | 11.3 | 0.00 | 0.00 | 0.00 | 45 | 1014.4 |
| 20260503173552 | 54 | 309 | 0.9 | 11.3 | 0.00 | 0.00 | 0.00 | 43 | 1014.4 |
| 20260503173154 | 55 | 0 | 0.9 | 12.2 | 0.00 | 0.00 | 0.00 | 42 | 1014.5 |
| 20260503172554 | 55 | 339 | 1.7 | 12.2 | 0.00 | 0.00 | 0.00 | 45 | 1014.5 |
| 20260503172051 | 54 | 0 | 0.9 | 7.8 | 0.00 | 0.00 | 0.00 | 44 | 1014.5 |
| 20260503171555 | 54 | 333 | 0.9 | 7.8 | 0.00 | 0.00 | 0.00 | 46 | 1014.6 |
| 20260503171052 | 55 | 0 | 0.0 | 7.8 | 0.00 | 0.00 | 0.00 | 46 | 1014.6 |
| 20260503170552 | 54 | 33 | 0.0 | 9.6 | 0.00 | 0.00 | 0.00 | 46 | 1014.6 |
| 20260503150552 | 50 | 287 | 0.0 | 11.3 | 0.00 | 0.00 | 0.00 | 49 | 1015.4 |
| 20260503131053 | 46 | 333 | 0.9 | 8.7 | 0.00 | 0.00 | 0.00 | 63 | 1015.5 |
| 20260503130553 | 46 | 338 | 0.9 | 13.0 | 0.00 | 0.00 | 0.00 | 61 | 1015.5 |
| 20260503130107 | 45 | 9 | 0.9 | 13.0 | 0.00 | 0.00 | 0.00 | 64 | 1015.4 |
| 20260503120109 | 43 | 296 | 0.0 | 8.7 | 0.00 | 0.00 | 0.00 | 66 | 1015.2 |
| 20260503110550 | 42 | 0 | 0.0 | 0.9 | 0.00 | 0.00 | 0.00 | 70 | 1014.7 |
| 20260503100109 | 43 | 0 | 0.0 | 0.9 | 0.00 | 0.00 | 0.00 | 78 | 1013.4 |